N31GJ KBGR-KBKV

Flight info

Callsign N31GJ
Flight time N/A
Altitude 40000
Route ENE DPK Q481 ZIGGI TRPOD Q409 CRPLR LARKE PITRW ETORE
Aircraft LJ35/M-SGHRWXY/SB1

Departure

Time 2026-04-20 16:14
Airport Bangor International Airport (KBGR)

Arrival

Time N/A
Airport Brooksville–Tampa Bay Regional Airport (KBKV)
Time Latitude Longitude Altitude Speed Heading
2026-04-20 16:05 44.80401 -68.81324 156 ft 0 kts 292°
2026-04-20 16:11 44.80401 -68.81325 155 ft 1 kts 292°
2026-04-20 16:11 44.80402 -68.81364 155 ft 8 kts 242°
2026-04-20 16:11 44.80353 -68.81412 154 ft 2 kts 201°
2026-04-20 16:11 44.80341 -68.81467 154 ft 11 kts 286°
2026-04-20 16:12 44.80326 -68.81555 153 ft 11 kts 201°
2026-04-20 16:12 44.80260 -68.81510 153 ft 15 kts 133°
2026-04-20 16:12 44.80175 -68.81387 154 ft 20 kts 135°
2026-04-20 16:12 44.80062 -68.81224 154 ft 26 kts 134°
2026-04-20 16:13 44.79949 -68.81061 161 ft 19 kts 136°
2026-04-20 16:13 44.79860 -68.80999 168 ft 15 kts 192°
2026-04-20 16:13 44.79770 -68.81102 170 ft 19 kts 225°
2026-04-20 16:13 44.79710 -68.81234 170 ft 14 kts 261°
2026-04-20 16:14 44.79744 -68.81366 165 ft 11 kts 313°
2026-04-20 16:14 44.79959 -68.81677 158 ft 94 kts 314°
2026-04-20 16:14 44.80607 -68.82644 505 ft 152 kts 311°
2026-04-20 16:14 44.81253 -68.83738 1791 ft 152 kts 309°
2026-04-20 16:15 44.81994 -68.84893 2735 ft 163 kts 313°
2026-04-20 16:15 44.82665 -68.86288 3408 ft 175 kts 282°
2026-04-20 16:15 44.82584 -68.87987 4463 ft 177 kts 249°
2026-04-20 16:15 44.81836 -68.89440 5267 ft 195 kts 223°
2026-04-20 16:16 44.80626 -68.90496 6012 ft 217 kts 212°
2026-04-20 16:16 44.79204 -68.91469 6698 ft 232 kts 207°
2026-04-20 16:16 44.77747 -68.92489 7465 ft 238 kts 215°
2026-04-20 16:16 44.76423 -68.93975 8230 ft 250 kts 227°
2026-04-20 16:17 44.75142 -68.95720 9318 ft 256 kts 225°
2026-04-20 16:17 44.73814 -68.97406 10480 ft 257 kts 225°
2026-04-20 16:17 44.72489 -68.99085 11659 ft 255 kts 225°
2026-04-20 16:17 44.71175 -69.00761 12845 ft 254 kts 225°
2026-04-20 16:18 44.69867 -69.02436 13964 ft 255 kts 225°
2026-04-20 16:18 44.68576 -69.04093 15051 ft 254 kts 225°
2026-04-20 16:18 44.67263 -69.05778 16091 ft 256 kts 225°
2026-04-20 16:18 44.65944 -69.07467 17132 ft 256 kts 225°
2026-04-20 16:19 44.64621 -69.09161 18133 ft 258 kts 225°
2026-04-20 16:19 44.63293 -69.10865 19227 ft 260 kts 225°
2026-04-20 16:19 44.61955 -69.12585 20316 ft 261 kts 224°
2026-04-20 16:19 44.60609 -69.14310 21348 ft 263 kts 224°
2026-04-20 16:20 44.59257 -69.16042 22345 ft 264 kts 223°
2026-04-20 16:20 44.57897 -69.17784 23299 ft 266 kts 223°
2026-04-20 16:20 44.56528 -69.19534 24196 ft 267 kts 222°
2026-04-20 16:20 44.55148 -69.21297 25058 ft 269 kts 222°
2026-04-20 16:21 44.53758 -69.23074 25847 ft 272 kts 221°
2026-04-20 16:21 44.52347 -69.24876 26609 ft 275 kts 220°
2026-04-20 16:21 44.50925 -69.26690 27340 ft 278 kts 219°
2026-04-20 16:21 44.49504 -69.28501 28056 ft 280 kts 219°
2026-04-20 16:22 44.48031 -69.30377 28743 ft 283 kts 219°
2026-04-20 16:22 44.46582 -69.32216 29369 ft 286 kts 218°
2026-04-20 16:22 44.45102 -69.34098 29988 ft 289 kts 218°
2026-04-20 16:22 44.43609 -69.35996 30543 ft 292 kts 218°
2026-04-20 16:23 44.42090 -69.37925 30995 ft 298 kts 218°
2026-04-20 16:23 44.40544 -69.39883 31448 ft 302 kts 218°
2026-04-20 16:23 44.38970 -69.41881 31859 ft 308 kts 218°
2026-04-20 16:23 44.37371 -69.43907 32248 ft 312 kts 218°
2026-04-20 16:24 44.35751 -69.45961 32608 ft 317 kts 219°
2026-04-20 16:24 44.34102 -69.48048 32962 ft 322 kts 219°
2026-04-20 16:24 44.32429 -69.50165 33318 ft 326 kts 219°
2026-04-20 16:24 44.30746 -69.52292 33750 ft 327 kts 219°
2026-04-20 16:25 44.29057 -69.54425 34162 ft 328 kts 219°
2026-04-20 16:25 44.27354 -69.56575 34543 ft 330 kts 219°
2026-04-20 16:25 44.25639 -69.58735 34900 ft 333 kts 220°
2026-04-20 16:25 44.23918 -69.60904 35267 ft 335 kts 219°
2026-04-20 16:26 44.22186 -69.63083 35630 ft 336 kts 220°
2026-04-20 16:26 44.20443 -69.65276 35942 ft 339 kts 220°
2026-04-20 16:26 44.18689 -69.67480 36298 ft 340 kts 220°
2026-04-20 16:26 44.16947 -69.69668 36613 ft 342 kts 220°
2026-04-20 16:27 44.15175 -69.71889 36933 ft 343 kts 220°
2026-04-20 16:27 44.13394 -69.74119 37334 ft 343 kts 220°
2026-04-20 16:27 44.11626 -69.76333 37780 ft 342 kts 221°
2026-04-20 16:27 44.09858 -69.78547 38142 ft 343 kts 221°
2026-04-20 16:28 44.08076 -69.80775 38444 ft 345 kts 221°
2026-04-20 16:28 44.06286 -69.83008 38770 ft 346 kts 221°
2026-04-20 16:28 44.04488 -69.85251 39064 ft 348 kts 221°
2026-04-20 16:28 44.02679 -69.87508 39338 ft 350 kts 221°
2026-04-20 16:29 44.00862 -69.89773 39632 ft 351 kts 221°
2026-04-20 16:29 43.99038 -69.92042 39918 ft 353 kts 221°
2026-04-20 16:29 43.97207 -69.94320 40237 ft 354 kts 221°
2026-04-20 16:29 43.95366 -69.96608 40546 ft 355 kts 221°
2026-04-20 16:30 43.93517 -69.98903 40855 ft 357 kts 221°
2026-04-20 16:30 43.91662 -70.01205 41140 ft 358 kts 221°
2026-04-20 16:30 43.89819 -70.03487 41426 ft 360 kts 221°
2026-04-20 16:30 43.87944 -70.05807 41720 ft 361 kts 221°
2026-04-20 16:31 43.86068 -70.08127 41993 ft 362 kts 221°
2026-04-20 16:31 43.84186 -70.10453 42257 ft 364 kts 221°
2026-04-20 16:31 43.82293 -70.12790 42511 ft 365 kts 221°
2026-04-20 16:31 43.80392 -70.15134 42764 ft 366 kts 221°
2026-04-20 16:32 43.78488 -70.17481 43013 ft 367 kts 221°
2026-04-20 16:32 43.76571 -70.19844 43125 ft 371 kts 221°
2026-04-20 16:32 43.72657 -70.24658 43154 ft 382 kts 221°
2026-04-20 16:33 43.68621 -70.29611 43166 ft 393 kts 221°
2026-04-20 16:33 43.64479 -70.34686 43170 ft 403 kts 221°
2026-04-20 16:34 43.60238 -70.39872 43170 ft 411 kts 221°
2026-04-20 16:34 43.55925 -70.45136 43167 ft 417 kts 221°
2026-04-20 16:35 43.51584 -70.50422 43162 ft 421 kts 221°
2026-04-20 16:35 43.47178 -70.55776 43167 ft 423 kts 221°
2026-04-20 16:36 43.42762 -70.61132 43166 ft 423 kts 221°
2026-04-20 16:36 43.38232 -70.66257 43165 ft 421 kts 218°
2026-04-20 16:37 43.33580 -70.71153 43163 ft 421 kts 218°
2026-04-20 16:37 43.28964 -70.76030 43163 ft 421 kts 218°
2026-04-20 16:38 43.24338 -70.80955 43158 ft 421 kts 219°
2026-04-20 16:38 43.19714 -70.85890 43156 ft 421 kts 219°
2026-04-20 16:39 43.15081 -70.90832 43156 ft 421 kts 219°
2026-04-20 16:39 43.10455 -70.95755 43156 ft 421 kts 219°
2026-04-20 16:40 43.05849 -71.00648 43156 ft 421 kts 219°
2026-04-20 16:40 43.01222 -71.05556 43162 ft 421 kts 219°
2026-04-20 16:41 42.96587 -71.10460 43170 ft 421 kts 219°
2026-04-20 16:41 42.91955 -71.15353 43173 ft 421 kts 219°
2026-04-20 16:42 42.87313 -71.20246 43175 ft 421 kts 219°
2026-04-20 16:42 42.82701 -71.25099 43180 ft 421 kts 219°
2026-04-20 16:43 42.78056 -71.29976 43183 ft 421 kts 219°
2026-04-20 16:43 42.73409 -71.34847 43183 ft 421 kts 219°
2026-04-20 16:44 42.68753 -71.39716 43184 ft 421 kts 219°
2026-04-20 16:44 42.64132 -71.44541 43183 ft 421 kts 219°
2026-04-20 16:45 42.59481 -71.49386 43182 ft 421 kts 218°
2026-04-20 16:45 42.54825 -71.54228 43182 ft 421 kts 219°
2026-04-20 16:46 42.50167 -71.59062 43181 ft 421 kts 219°
2026-04-20 16:46 42.45506 -71.63891 43182 ft 421 kts 218°
2026-04-20 16:47 42.40837 -71.68718 43182 ft 422 kts 218°
2026-04-20 16:47 42.36192 -71.73512 43182 ft 422 kts 218°
2026-04-20 16:48 42.31511 -71.78332 43177 ft 422 kts 218°
2026-04-20 16:48 42.26837 -71.83137 43175 ft 422 kts 218°
2026-04-20 16:49 42.22156 -71.87940 43174 ft 422 kts 218°
2026-04-20 16:49 42.17478 -71.92731 43174 ft 422 kts 218°
2026-04-20 16:50 42.12826 -71.97487 43176 ft 422 kts 218°
2026-04-20 16:50 42.08137 -72.02272 43184 ft 422 kts 218°
2026-04-20 16:51 42.03454 -72.07039 43182 ft 422 kts 218°
2026-04-20 16:51 41.98776 -72.11794 43188 ft 422 kts 218°
2026-04-20 16:52 41.94088 -72.16546 43197 ft 422 kts 218°
2026-04-20 16:52 41.89422 -72.21270 43198 ft 422 kts 218°
2026-04-20 16:53 41.84715 -72.26027 43204 ft 423 kts 218°
2026-04-20 16:53 41.80013 -72.30770 43215 ft 422 kts 218°
2026-04-20 16:54 41.75313 -72.35502 43209 ft 422 kts 218°
2026-04-20 16:54 41.70616 -72.40221 43214 ft 422 kts 218°
2026-04-20 16:55 41.65914 -72.44936 43215 ft 422 kts 218°
2026-04-20 16:55 41.61211 -72.49645 43214 ft 422 kts 218°
2026-04-20 16:56 41.56542 -72.54310 43203 ft 422 kts 219°
2026-04-20 16:56 41.51836 -72.59003 43208 ft 422 kts 219°
2026-04-20 16:57 41.47124 -72.63694 43206 ft 422 kts 219°
2026-04-20 16:57 41.42408 -72.68380 43201 ft 422 kts 219°
2026-04-20 16:58 41.37722 -72.73029 43210 ft 422 kts 219°
2026-04-20 16:58 41.33778 -72.76933 43207 ft 422 kts 219°
2026-04-20 16:59 41.29087 -72.81570 43205 ft 422 kts 219°
2026-04-20 16:59 41.24373 -72.86220 43203 ft 422 kts 219°
2026-04-20 17:00 41.17300 -72.93183 43200 ft 422 kts 219°
2026-04-20 17:01 41.12580 -72.97819 43200 ft 422 kts 219°
2026-04-20 17:01 41.07857 -73.02449 43200 ft 422 kts 219°
2026-04-20 17:02 41.03132 -73.07071 43201 ft 422 kts 219°
2026-04-20 17:02 40.98416 -73.11678 43192 ft 422 kts 219°
2026-04-20 17:03 40.93689 -73.16287 43191 ft 422 kts 219°
2026-04-20 17:03 40.88992 -73.20858 43197 ft 422 kts 219°
2026-04-20 17:04 40.84263 -73.25452 43191 ft 422 kts 219°
2026-04-20 17:04 40.79541 -73.30029 43192 ft 421 kts 220°
2026-04-20 17:05 40.74814 -73.34616 43198 ft 421 kts 220°
2026-04-20 17:05 40.70093 -73.39203 43198 ft 421 kts 220°
2026-04-20 17:06 40.65373 -73.43781 43203 ft 422 kts 220°
2026-04-20 17:06 40.60637 -73.48363 43195 ft 422 kts 220°
2026-04-20 17:07 40.55928 -73.52909 43202 ft 422 kts 220°
2026-04-20 17:07 40.51191 -73.57475 43201 ft 422 kts 220°
2026-04-20 17:08 40.46458 -73.62029 43211 ft 422 kts 220°
2026-04-20 17:08 40.41709 -73.66590 43212 ft 422 kts 220°
2026-04-20 17:09 40.36969 -73.71133 43212 ft 422 kts 220°
2026-04-20 17:09 40.32227 -73.75670 43212 ft 422 kts 220°
2026-04-20 17:10 40.27485 -73.80200 43212 ft 422 kts 220°
2026-04-20 17:10 40.22735 -73.84730 43213 ft 422 kts 220°
2026-04-20 17:11 40.18019 -73.89218 43220 ft 422 kts 220°
2026-04-20 17:11 40.13270 -73.93730 43222 ft 422 kts 220°
2026-04-20 17:12 40.08512 -73.98243 43222 ft 422 kts 220°
2026-04-20 17:12 40.03757 -74.02739 43223 ft 422 kts 220°
2026-04-20 17:13 39.98942 -74.07146 43219 ft 423 kts 219°
2026-04-20 17:13 39.94113 -74.11523 43223 ft 423 kts 219°
2026-04-20 17:14 39.89316 -74.15875 43215 ft 423 kts 219°
2026-04-20 17:14 39.84483 -74.20263 43218 ft 423 kts 219°
2026-04-20 17:15 39.79662 -74.24635 43214 ft 423 kts 219°
2026-04-20 17:15 39.74831 -74.29011 43223 ft 423 kts 219°
2026-04-20 17:16 39.69996 -74.33381 43228 ft 423 kts 219°
2026-04-20 17:16 39.65152 -74.37753 43230 ft 423 kts 219°
2026-04-20 17:17 39.60344 -74.42085 43230 ft 423 kts 219°
2026-04-20 17:17 39.55503 -74.46437 43229 ft 423 kts 219°